This is the latest recevied weather packets stored in our database for station/object WP3OF-3. If no packets are shown the sender has not sent any weather packets the latest 10 day(s).
| Time | Temp. | Humidity | Pressure | Rain* | Wind** | Luminosity | Snow |
|---|---|---|---|---|---|---|---|
| 1777761340 | 25° C | 94% | 1017.7 hPa | 0 mm | - | - | - |
| 1777761039 | 25° C | 94% | 1017.6 hPa | 0 mm | - | - | - |
| 1777760735 | 25° C | 94% | 1017.7 hPa | 0 mm | - | - | - |
| 1777760432 | 25° C | 94% | 1017.5 hPa | 0 mm | - | - | - |
| 1777760127 | 25° C | 94% | 1017.7 hPa | 0 mm | - | - | - |
| 1777759825 | 25.56° C | 94% | 1017.5 hPa | 0 mm | - | - | - |
| 1777759520 | 25.56° C | 94% | 1017.4 hPa | 0 mm | - | - | - |
| 1777758612 | 25.56° C | 94% | 1017.4 hPa | 0 mm | - | - | - |
| 1777757702 | 25.56° C | 94% | 1017.3 hPa | 0 mm | - | - | - |
| 1777757401 | 25.56° C | 94% | 1017.1 hPa | 0 mm | - | - | - |
| 1777757099 | 25.56° C | 93% | 1016.9 hPa | 0 mm | - | - | - |
| 1777756796 | 25.56° C | 93% | 1017.1 hPa | 0 mm | - | - | - |
| 1777756491 | 25.56° C | 93% | 1017.1 hPa | 1.27 mm | - | - | - |
| 1777756189 | 25.56° C | 93% | 1016.9 hPa | 1.27 mm | - | - | - |
| 1777755886 | 25.56° C | 93% | 1016.8 hPa | 0 mm | - | - | - |
| 1777754977 | 25.56° C | 93% | 1016.8 hPa | 13.72 mm | - | - | - |
| 1777754069 | 25.56° C | 92% | 1017 hPa | 12.7 mm | - | - | - |
| 1777753764 | 25.56° C | 91% | 1017 hPa | 10.67 mm | - | - | - |
| 1777753461 | 25.56° C | 90% | 1016.9 hPa | 3.05 mm | - | - | - |
| 1777753160 | 25.56° C | 90% | 1017 hPa | 1.78 mm | - | - | - |
| 1777752855 | 25.56° C | 88% | 1016.8 hPa | 0 mm | - | - | - |
| 1777752553 | 26.11° C | 88% | 1016.9 hPa | 1.27 mm | - | - | - |
| 1777752248 | 26.67° C | 85% | 1017 hPa | 1.27 mm | - | - | - |
| 1777751946 | 26.67° C | 85% | 1016.9 hPa | 0 mm | - | - | - |
| 1777751643 | 27.78° C | 81% | 1017.1 hPa | 0 mm | - | - | - |
* Rain latest hour (hover to see other rain measurements)
** Current wind speed in m/s (hover to see current wind gust speed)